Weather Roundup
Issued by NWS

Home | Current Version | Previous Version | Text Only | Print | Product List | Glossary On
Versions: 1 2 3 4 5 6 7 8 9 10 11 12 13 14 15 16 17 18 19 20 21 22 23 24 25 26 27 28 29 30 31 32 33 34 35 36 37 38 39 40 41 42 43 44 45 46 47 48 49 50
133
NZUS93 KARX 060310
HRRWXR

CURRENT HOURLY OBSERVATIONS ACROSS
MUCH OF THE UPPER MISSISSIPPI VALLEY
NATIONAL WEATHER SERVICE LA CROSSE WI
900 PM CST FRI FEB 05 2016


...SOUTHEAST MINNESOTA...


CITY           SKY/WX    TMP DP  RH WIND       PRES   REMARKS
ROCHESTER      CLOUDY    21  17  84 S13       30.20F WCI   9
ROCHESTER/MAYO CLOUDY    23  19  83 S10       30.21F WCI  13
WINONA         CLOUDY    28  18  64 CALM      30.25S
AUSTIN         FLURRIES  21  19  93 S10       30.21F WCI  10
ALBERT LEA     CLOUDY    25  21  86 S10       30.21S WCI  15
DODGE CENTER   CLOUDY    21  18  86 SW16G22   30.20S WCI   7
PRESTON        CLOUDY    21  15  79 S13       30.23S WCI   8
OWATONNA       CLOUDY    25  19  80 S16       30.20S WCI  12
FARIBAULT      CLOUDY    25  21  86 S13       30.20S WCI  13
$$

...ELSEWHERE IN MINNESOTA...


CITY           SKY/WX    TMP DP  RH WIND       PRES   REMARKS
MINNEAPOLIS    CLOUDY    25  20  81 S9        30.19F WCI  15
INTNL FALLS    CLOUDY    22  15  75 SW6       30.05F WCI  14
DULUTH         CLOUDY    24  13  62 W10       30.08S WCI  14
RED WING       MIX PCPN  25  18  74 S7        30.22F WCI  17
REDWOOD FALLS  CLOUDY    27  23  85 W8        30.18S WCI  19
MANKATO        CLOUDY    25  21  86 S10       30.19F WCI  15
WORTHINGTON    MOCLDY    25  21  86 W10       30.18S WCI  15
FAIRMONT       CLOUDY    27  21  80 SW8       30.19R WCI  18
$$

...SOUTHWEST WISCONSIN...


CITY           SKY/WX    TMP DP  RH WIND       PRES   REMARKS
LA CROSSE      CLOUDY    24  15  68 S8        30.25F WCI  15
PRAIRIE DU CHI MIX PCPN  26  17  68 CALM      30.30F
BOSCOBEL       CLOUDY    26  18  71 CALM      30.30F
LONE ROCK      CLOUDY    23  17  78 CALM      30.30F
PLATTEVILLE    CLOUDY    26  21  81 S5        30.29S WCI  21
FORT MC COY    CLOUDY    24  15  69 SW3       30.26F
CAMP DOUGLAS   CLOUDY    24  20  87 S5        30.24F WCI  18
VIROQUA        MOCLDY    22  15  76 S10       30.23F WCI  11
WIS DELLS      CLOUDY    24  16  71 SW5       30.26F WCI  18
$$

...ELSEWHERE IN WISCONSIN...


CITY           SKY/WX    TMP DP  RH WIND       PRES   REMARKS
MILWAUKEE      CLOUDY    29  17  61 W6        30.31S WCI  23
MADISON        CLOUDY    27  17  66 S5        30.29F WCI  22
GREEN BAY      CLOUDY    22  16  78 S7        30.26F WCI  13
EAU CLAIRE     FLURRIES  22  14  71 MISG      30.21S
BLACK RVR FLS  CLOUDY    22  14  72 SW3       30.24S
MEDFORD        CLOUDY    20  14  77 S9        30.17F WCI   9
WAUSAU         CLOUDY    22  13  68 SW7       30.19S WCI  13
WIS RAPIDS     CLOUDY    22  14  71 SW5       30.24F WCI  16
MARSHFIELD     CLOUDY    21  12  68 SW8       30.20S WCI  11
RICE LAKE      CLOUDY    23  15  73 S7        30.18F WCI  14
$$

...NORTHEAST IOWA...


CITY           SKY/WX    TMP DP  RH WIND       PRES   REMARKS
WATERLOO       CLOUDY    25  21  85 S9        30.28F WCI  15
DUBUQUE        CLOUDY    26  21  81 S9        30.28F WCI  17
DECORAH        CLOUDY    23  19  86 S7        30.24F WCI  15
MASON CITY     CLOUDY    23  21  92 S14       30.22F WCI  11
CHARLES CITY   CLOUDY    23  23 100 S12       30.25F WCI  12
OELWEIN        CLOUDY    25  23  93 SW8       30.27S WCI  16
$$

...ELSEWHERE IN IOWA...


CITY           SKY/WX    TMP DP  RH WIND       PRES   REMARKS
DES MOINES     FLURRIES  30  24  78 S9        30.27F WCI  22
IOWA CITY      CLOUDY    26  21  81 SE6       30.32F WCI  19
FORT DODGE     CLOUDY    27  23  86 S12       30.23R WCI  16
MARSHALLTOWN   CLOUDY    26  23  88 S9        30.26F WCI  17
CEDAR RAPIDS   CLOUDY    27  23  85 S6        30.29S WCI  20
$$

...NORTHERN ILLINOIS...


CITY           SKY/WX    TMP DP  RH WIND       PRES   REMARKS
CHICAGO-OHARE  CLOUDY    29  21  72 W6        30.33F WCI  23
CHICAGO-MIDWAY MOCLDY    30  20  66 SW8       30.34F WCI  22
MOLINE         CLOUDY    28  20  71 CALM      30.33S
ROCKFORD       CLOUDY    28  21  75 S5        30.33F WCI  23
PEORIA         CLEAR     25  19  78 CALM      30.36R
$$

NOTE: "FAIR" INDICATES FEW OR NO CLOUDS BELOW 12,000 FEET WITH NO
SIGNIFICANT WEATHER AND/OR OBSTRUCTIONS TO VISIBILITY. WIND
SPEEDS ARE IN MILES-PER-HOUR.




USA.gov is the U.S. government's official web portal to all federal, state and local government web resources and services.